Probability
0 0 0 0 0 0 0 0 0 0 0 0 0 0 0 0 0 0 0 0 0 0 0 0 0 0 0 0 0 0 0 0 0 0 0 0 0 0 0 0 0 0 0 0
0 0 0 0 0 0 0 0 0 0 0 0 0 0 0 0 0 0 0 0 0 0 0 0 0 0 0 0 0 0 0 0 0 0 0 0 0 0 0 0 0 0 0 0
0 0 0 0 0 0 0 0 0 0 0 0 0 0 0 0 0 0 0 0 0 0 0 0 0 0 0 0 0 0 0 0 0 0 0 0 0 0 0 0 0 0 0 0
0 0 0 0 0 0 0 0 0 0 0 0 0 0 0 0 0 0 0 0 0 0 0 0 0 0 0 0 0 0 0 0 0 0 0 0 0 0 0 0 0 0 0 0
0 0 0 0 0 0 0 0 0 0 0 0 0 0 0 0 0 0 0 0 0 0 0 0 0 0 0 0 0 0 0 0 0 0 0 0 0 0 0 0 0 0 0 0
0 0 0 0 0 0 0 0 0 0 0 0 0 0 0 0 0 0 0 0 0 0 0 0 0 0 0 0 0 0 0 0 0 0 0 0 0 0 0 0 0 0 0 0
0 0 0 0 0 0 0 0 0 0 0 0 0 0 0 0 0 0 0 0 0 0 0 0 0 0 0 0 0 0 0 0 0 0 0 0 0 0 0 0 0 0 0 0
0 0 0 0 0 0 0 0 0 0 0 0 0 0 0 0 0 0 0 0 0 0 0 0 0 0 0 0 0 0 0 0 0 0 0 0 0 0 0 0 0 0 0 0
0 0 0 0 0 0 0 0 0 0 0 0 0 0 0 0 0 0 0 0 0 0 0 0 0 0 0 0 0 0 0 0 0 0 0 0 0 0 0 0 0 0 0 0
0 0 0 0 0 0 0 0 0 0 0 0 0 0 0 0 0 0 0 0 0 0 0 0 0 0 0 0 0 0 0 0 0 0 0 0 0 0 0 0 0 0 0 0
0 0 0 0 0 0 0 0 0 0 0 0 0 0 0 0 0 0 0 0 0 0 0 0 0 0 0 0 0 0 0 0 0 0 0 0 0 0 0 0 0 0 0 0
0 0 0 0 0 0 0 0 0 0 0 0 0 0 0 0 0 0 0 0 0 0 0 0 0 0 0 0 0 0 0 0 0 0 0 0 0 0 0 0 0 0 0 0
0 0 0 0 0 0 0 0 0 0 0 0 0 0 0 0 0 0 0 0 0 0 0 0 0 0 0 0 0 0 0 0 0 0 0 0 0 0 0 0 0 0 0 0
0 0 0 0 0 0 0 0 0 0 0 0 0 0 0 0 0 0 0 0 0 0 0 0 0 0 0 0 0 0 0 0 0 0 0 0 0 0 0 0 0 0 0 0
0 0 0 0 0 0 0 0 0 0 0 0 0 0 0 0 0 0 0 0 0 0 0 0 0 0 0 0 0 0 0 0 0 0 0 0 0 0 0 0 0 0 0 0
0 0 0 0 0 0 0 0 0 0 0 0 0 0 0 0 0 0 0 0 0 0 0 0 0 0 0 0 0 0 0 0 0 0 0 0 0 0 0 0 0 0 0 0
0 0 0 0 0 0 0 0 0 0 0 0 0 0 0 0 0 0 0 0 0 0 0 0 0 0 0 0 0 0 0 0 0 0 0 0 0 0 0 0 0 0 0 0
0 0 0 0 0 0 0 0 0 0 0 0 0 0 0 0 0 0 0 0 0 0 0 0 0 0 0 0 0 0 0 0 0 0 0 0 0 0 0 0 0 0 0 0
0 0 0 0 0 0 0 0 0 0 0 0 0 0 0 0 0 0 0 0 0 0 0 0 0 0 0 0 0 0 0 0 0 0 0 0 0 0 0 0 0 0 0 0
0 0 0 0 0 0 0 0 0 0 0 0 0 0 0 0 0 0 0 0 0 0 0 0 0 0 0 0 0 0 0 0 0 0 0 0 0 0 0 0 0 0 0 0
0 0 0 0 0 0 0 0 0 0 0 0 0 0 0 0 0 0 0 0 0 0 0 0 0 0 0 0 0 0 0 0 0 0 0 0 0 0 0 0 0 0 0 0
0 0 0 0 0 0 0 0 0 0 0 0 0 0 0 0 0 0 0 0 0 0 0 0 0 0 0 0 0 0 0 0 0 0 0 0 0 0 0 0 0 0 0 0
0 0 0 0 0 0 0 0 0 0 0 0 0 0 0 0 0 0 0 0 0 0 0 0 0 0 0 0 0 0 0 0 0 0 0 0 0 0 0 0 0 0 0 0
0 0 0 0 0 0 0 0 0 0 0 0 0 0 0 0 0 0 0 0 0 0 0 0 0 0 0 0 0 0 0 0 0 0 0 0 0 0 0 0 0 0 0 0
0 0 0 0 0 0 0 0 0 0 0 0 0 0 0 0 0 0 0 0 0 0 0 0 0 0 0 0 0 0 0 0 0 0 0 0 0 0 0 0 0 0 0 0
0 0 0 0 0 0 0 0 0 0 0 0 0 0 0 0 0 0 0 0 0 0 0 0 0 0 0 0 0 0 0 0 0 0 0 0 0 0 0 0 0 0 0 0
0 0 0 0 0 0 0 0 0 0 0 0 0 0 0 0 0 0 0 0 0 0 0 0 0 0 0 0 0 0 0 0 0 0 0 0 0 0 0 0 0 0 0 0
Wind_Speed
9 8 6 8 10 9 11 10 11 10 10 13 8 7 6 5 3 3 3 3 3 3 4 4 4 4 4 5 5 4 4 5 7 6 6 5 6 6 5 5 6 5 5 6
7 8 9 12 14 14 14 13 15 13 15 11 8 5 5 4 4 4 4 4 4 4 4 4 5 5 5 5 5 4 4 6 6 5 5 5 6 6 5 5 5 5 5 6
6 5 6 11 12 12 9 8 10 15 14 6 5 5 4 4 3 3 4 4 4 5 5 5 5 5 5 6 5 4 5 6 5 5 5 6 5 5 6 6 5 5 6 6
4 2 10 10 3 6 8 9 9 8 6 4 5 3 3 3 3 4 4 4 5 5 5 5 5 5 5 5 4 5 5 6 5 5 5 5 5 5 6 5 5 5 6 6
4 6 10 9 4 4 5 6 5 7 7 4 1 2 3 3 3 4 5 5 5 5 5 5 6 6 5 5 4 4 5 6 5 5 5 5 5 6 5 5 5 6 5 6
5 6 9 6 2 1 2 5 3 3 4 3 0 2 5 5 4 5 6 5 5 5 5 5 6 5 4 5 5 5 6 6 5 5 5 6 6 6 5 5 6 5 6 6
9 8 10 6 2 3 3 6 3 3 4 3 4 6 6 5 5 6 6 6 6 5 5 6 6 5 5 6 6 7 6 5 5 5 5 6 5 5 5 5 5 5 6 6
6 8 11 3 3 5 6 3 3 4 5 5 6 7 7 6 6 6 6 7 6 5 6 6 6 5 6 7 8 6 5 5 5 5 5 4 4 5 4 4 5 5 5 5
9 9 5 4 6 6 4 5 5 5 6 5 6 7 7 7 7 7 7 7 6 6 7 7 6 5 7 8 6 5 5 6 5 5 5 4 5 5 4 4 4 5 5 5
6 8 7 6 7 6 5 7 6 6 6 6 7 8 8 8 7 7 7 6 6 6 6 7 6 6 7 7 6 5 6 6 5 5 5 5 4 4 5 5 5 5 5 5
9 9 7 7 6 7 7 6 7 7 7 8 8 8 8 7 7 7 7 6 6 6 7 8 8 7 7 6 5 6 6 6 5 5 5 5 5 5 6 7 7 7 6 5
10 8 7 9 7 7 7 8 8 7 7 7 7 8 8 8 7 7 7 6 6 7 8 8 8 8 7 6 5 6 6 6 5 5 5 5 5 5 8 9 11 12 12 9
12 11 10 10 9 7 8 8 7 7 8 9 8 7 8 8 7 7 7 7 8 9 9 8 8 9 8 6 6 6 7 6 5 5 5 5 5 5 5 6 8 11 12 12
9 8 9 8 8 7 6 6 6 6 7 7 7 6 6 7 7 7 8 8 8 8 8 8 8 9 8 6 6 7 7 7 7 5 5 5 5 5 5 5 5 4 6 10
7 6 7 7 6 6 5 4 5 6 7 7 6 6 6 7 8 9 9 8 8 8 9 8 8 9 7 6 7 8 7 6 5 5 5 5 5 5 5 5 5 4 3 4
6 6 6 6 6 6 6 6 6 8 8 8 8 8 8 8 9 9 9 8 8 9 9 9 9 9 7 7 7 7 6 9 8 5 5 5 5 5 5 5 5 5 5 4
5 6 5 6 6 6 7 7 7 8 8 9 9 9 8 8 9 9 9 8 8 10 10 9 10 9 7 7 7 6 5 6 8 6 5 5 5 5 5 5 6 5 5 6
6 6 6 6 6 7 7 7 7 8 8 9 9 8 8 9 10 10 10 9 8 9 9 9 8 8 8 7 6 5 5 5 5 5 5 5 5 5 5 6 6 6 4 5
4 5 6 6 7 7 7 8 8 7 8 8 8 9 9 10 10 10 9 9 9 11 10 7 10 8 7 7 7 5 5 6 6 5 5 7 7 5 5 6 6 6 5 4
5 6 7 7 7 7 8 8 8 9 9 8 9 9 10 10 9 9 9 9 9 8 8 9 8 7 7 7 7 5 5 6 6 6 5 5 5 5 5 6 6 5 5 5
8 8 8 8 9 9 8 9 9 10 10 9 9 10 11 11 9 8 8 10 9 8 8 10 7 6 6 6 7 5 5 6 6 5 5 5 5 5 5 5 5 5 5 5
8 8 9 9 9 10 9 8 8 10 10 10 10 10 10 11 10 9 9 9 9 10 7 6 5 8 9 9 5 5 6 6 6 5 5 5 5 5 5 5 5 5 4 4
9 9 10 10 10 10 10 9 9 9 10 10 10 10 10 10 8 8 9 7 6 10 8 6 9 12 13 7 5 5 6 6 6 5 5 5 5 5 5 5 5 4 4 4
10 10 10 10 8 9 10 11 9 8 9 10 10 10 9 8 8 7 7 11 12 12 8 9 13 13 12 5 5 5 5 5 5 5 5 4 4 4 4 4 4 4 4 5
10 10 10 9 9 9 10 10 9 9 9 8 9 9 7 7 8 8 7 8 11 11 7 9 12 12 8 5 5 5 5 5 5 4 4 4 4 4 4 4 4 4 4 4
10 9 9 9 8 8 7 7 7 7 7 8 8 6 6 6 7 7 6 7 8 10 7 5 6 7 5 5 5 5 4 5 5 4 4 4 4 4 4 4 4 4 4 3
9 8 7 7 7 7 6 7 7 8 7 8 9 7 6 6 6 6 7 6 6 6 5 5 4 4 4 4 4 4 4 4 4 4 3 3 3 3 3 4 3 3 3 3
Wind_Direction
252 260 254 248 248 229 217 217 226 244 246 259 260 261 264 266 269 275 284 291 288 285 284 286 288 283 274 271 269 259 252 249 248 248 245 242 242 241 239 236 237 238 243 240
266 257 259 262 254 242 237 233 239 253 262 258 263 255 260 263 261 265 275 282 285 289 290 287 284 281 280 277 273 261 253 253 255 253 250 247 245 242 239 238 237 236 239 236
264 279 301 263 241 226 224 220 214 236 249 258 264 255 249 253 245 254 271 283 287 289 282 279 278 276 273 269 272 264 257 260 258 251 250 249 246 242 240 240 240 241 243 235
257 276 246 245 220 208 220 239 226 238 253 246 248 248 246 229 223 259 276 282 284 287 287 284 280 281 277 276 275 265 261 260 257 251 252 251 244 243 243 239 239 242 244 236
219 243 270 283 266 203 206 260 232 233 254 266 285 347 294 256 237 250 261 266 266 265 270 281 286 284 285 285 281 274 268 265 262 253 252 251 248 247 243 239 242 240 241 237
209 232 247 251 270 253 121 265 259 214 233 243 172 288 272 270 269 265 267 269 271 274 278 283 282 283 284 283 283 276 269 266 262 256 251 251 249 246 243 238 242 243 245 238
221 235 257 257 244 103 193 251 267 233 227 220 223 231 252 267 269 267 272 276 277 280 280 276 279 281 277 277 272 270 270 266 261 256 252 251 249 246 245 244 245 244 246 243
204 224 247 221 144 192 230 256 259 250 235 230 244 258 265 268 271 277 279 278 277 277 277 276 275 270 271 271 270 273 273 269 266 262 257 253 245 251 246 240 244 247 248 251
206 225 244 200 215 237 234 247 252 243 241 238 253 261 267 269 269 270 269 272 271 269 277 278 272 259 265 272 276 277 275 270 268 267 260 248 241 246 247 236 237 244 240 246
248 260 267 264 260 258 245 248 249 244 249 248 252 259 265 266 267 266 267 268 270 272 275 279 277 268 262 270 273 270 271 272 268 264 265 257 245 238 237 236 236 238 237 241
257 271 285 272 254 254 263 261 262 261 257 253 253 259 259 263 265 265 267 266 264 264 269 274 278 276 272 269 266 265 266 268 265 259 257 257 250 239 235 235 230 230 233 230
253 251 251 267 268 263 266 264 262 266 271 264 253 258 260 262 264 265 268 269 268 267 267 271 273 274 272 266 258 259 267 266 261 258 256 253 256 265 247 243 249 242 237 232
255 265 264 270 274 272 267 266 265 262 262 267 266 260 263 266 267 266 269 268 265 266 267 270 273 274 272 265 259 255 258 261 261 255 253 251 245 247 268 268 252 246 240 236
260 264 268 269 272 278 272 271 276 279 275 269 269 269 268 271 273 271 271 268 267 268 269 270 270 272 270 266 262 260 259 259 258 253 250 247 243 239 240 250 264 266 246 237
263 249 250 263 270 274 270 271 282 285 285 283 277 274 271 272 275 276 277 276 274 273 273 272 272 274 272 265 262 261 261 260 255 251 247 245 241 238 238 240 245 251 259 247
260 259 254 256 260 266 269 267 268 273 276 275 275 274 270 269 273 276 280 278 273 272 272 270 270 272 271 265 264 263 259 259 258 254 247 243 238 235 236 238 239 237 237 236
249 262 262 265 268 271 269 265 265 272 278 277 277 278 279 281 281 281 282 278 268 267 267 265 268 272 268 262 259 259 260 260 255 254 246 242 238 235 234 234 234 235 236 226
234 241 247 251 262 273 277 273 272 275 276 278 282 283 282 280 279 280 282 284 282 279 271 262 262 266 265 261 256 253 253 255 250 249 249 244 242 235 233 234 234 234 236 229
258 257 264 266 268 270 274 276 276 275 277 280 280 278 276 274 274 276 280 281 281 281 280 274 272 269 264 260 256 253 251 253 254 251 248 250 250 238 234 235 235 230 225 222
281 277 275 276 276 272 273 276 279 281 280 279 279 280 280 279 276 276 276 273 267 266 273 277 278 269 262 258 253 249 248 250 251 251 249 245 243 241 238 236 234 229 225 221
280 280 281 281 282 278 274 275 278 280 282 280 277 278 280 282 280 277 276 279 277 270 270 273 270 264 260 258 255 249 246 248 248 247 247 247 245 242 239 236 232 229 224 219
277 278 280 281 282 283 281 277 274 275 279 280 277 277 280 283 283 279 267 264 274 279 278 270 266 263 264 265 253 248 248 248 248 245 244 244 241 240 239 234 231 228 222 216
272 273 275 276 275 277 281 279 274 273 275 275 277 277 276 275 275 276 282 275 270 276 276 266 268 270 272 268 253 248 249 249 248 245 244 243 240 237 236 232 228 221 216 214
272 272 272 273 275 277 279 279 276 273 270 272 271 270 270 276 278 265 262 275 280 280 274 270 272 273 273 260 251 249 248 247 246 244 244 243 238 234 232 229 224 218 214 209
269 271 273 275 275 273 273 278 281 279 276 276 274 270 264 258 264 274 273 271 274 278 275 273 274 274 267 250 245 245 245 243 243 242 238 239 236 232 227 221 218 215 212 209
266 268 268 264 263 269 273 275 276 279 280 283 282 276 271 266 264 267 271 270 268 274 272 268 266 266 254 246 242 241 241 248 251 244 238 238 234 226 220 216 211 211 208 205
266 266 269 271 269 264 263 265 269 274 275 275 280 281 277 275 271 270 270 272 272 271 267 265 261 256 252 247 242 239 239 240 239 237 235 231 225 219 214 209 209 204 198 197